Location: Cidade Industrial
(19.9500°S, 44.0167°W)
Time: 07:02:52
(UTC+00:00)

Daily predictions for brighter satellites

Satellite Brightness Start Highest point End
(mag) Time Altitude Azimuth Time Altitude Azimuth Time Altitude Azimuth
Cosmos 1346 Rocket 3.3 22:02:49 10° SSW 22:06:47 65° W 22:10:41 10° N
Cosmos 1953 Rocket 3.6 22:02:36 10° S 22:07:05 65° E 22:11:29 10° NNE
Lacrosse 5 rocket 3.0 22:07:10 10° S 22:10:53 24° SE 22:14:38 10° ENE
Meteor 2-10 Rocket 3.8 22:09:16 10° NNW 22:14:19 71° W 22:19:21 10° S
CZ-3B R/B 1.9 22:13:02 10° W 22:15:33 60° S 22:21:30 10° ESE
Cosmos 1603 4.1 22:10:54 10° NNW 22:16:38 74° WSW 22:22:24 10° SSE
Cosmos 2058 4.2 22:14:14 10° SSE 22:17:36 23° E 22:20:45 11° NE
Cosmos 1812 Rocket 4.1 22:18:04 10° NNE 22:22:02 36° E 22:26:02 10° SSE
ARGOS 3.4 22:17:23 10° SSE 22:22:33 45° E 22:27:37 10° N
Iridium 4 Rocket 3.1 22:19:58 10° N 22:24:43 84° E 22:29:08 10° S
GPS 2-17 Rocket1 3.0 22:20:32 10° W 22:25:11 84° N 22:29:00 14° E
CZ-4 R/B 2.0 22:22:28 10° S 22:26:41 63° WSW 22:30:50 10° NNW
Cosmos 1455 2.8 22:25:16 10° NNW 22:29:04 60° W 22:32:55 10° S
USA 186 3.2 22:28:53 10° SE 22:31:13 18° E 22:31:29 18° ENE
Meteor 2-1 Rocket 4.3 22:25:58 10° N 22:31:28 83° W 22:37:08 10° S
CSL-04 Debris 4.2 22:27:51 10° SSE 22:33:15 57° ENE 22:38:33 10° N
GPS 2-04 Rocket1 2.3 22:31:09 10° WSW 22:34:32 75° NNW 22:36:38 21° NE
Cosmos 1538 Rocket 3.9 22:30:53 10° N 22:36:03 73° ENE 22:41:20 10° SSE
Aureole 3 4.2 22:33:13 10° NNW 22:36:19 45° W 22:40:02 10° S
SL-08 RB Rocket 3.9 22:35:26 10° SSE 22:39:59 50° E 22:44:26 10° N
Centaur D-1AR AC-41 4.3 22:17:58 10° W 22:41:31 74° NNW 22:45:02 21° ENE
Cosmos 2266 Rocket 4.0 22:35:09 10° S 22:41:38 84° E 22:48:01 10° N
Cosmos 1655 Rocket 4.3 22:38:44 10° S 22:45:06 71° W 22:51:20 10° N
HJ-1C 4.0 22:42:56 10° S 22:46:13 56° WSW 22:49:26 10° NNW
Okean-O 3.9 22:42:57 10° S 22:47:11 43° WSW 22:51:23 10° NNW
Centaur AC-72 3.5 22:42:01 10° NW 22:47:32 42° NNE 22:57:15 11° E
Ariane Rocket 4.3 22:44:33 10° SE 22:47:59 20° E 22:47:59 20° E
ARIANE 44L R/B 4.5 22:38:40 10° WNW 22:49:16 24° NNW 22:51:49 16° NNE
Cosmos 1825 2.3 22:48:03 10° S 22:51:45 50° E 22:53:12 31° NE
ATLAS 3B R/B 3.3 22:45:06 10° NNW 22:52:30 69° WSW 22:59:59 10° SSE
H-2A R/B 3.3 22:55:10 10° S 22:59:47 40° WSW 23:04:21 10° NW
Cosmos 1441 Rocket 3.1 22:56:23 10° S 23:00:12 89° ESE 23:02:11 27° N
Cosmos 1408 3.3 22:57:59 10° SSW 23:01:37 53° W 23:04:33 14° NNW
Aurora 2 Rocket 3.6 22:55:26 10° WSW 23:02:00 54° S 23:04:52 23° ESE
CZ-2C R/B 3.8 22:58:29 16° N 23:02:13 83° WNW 23:07:03 10° SSW
SL-8 R/B 3.7 22:59:15 10° SW 23:04:03 69° SE 23:05:45 39° ENE
Atlas Centaur 2 3.1 23:02:34 10° SW 23:05:20 20° SSE 23:06:59 16° SE
Cosmos 405 2.8 23:08:06 60° NNE 23:08:34 71° E 23:12:04 10° S
Cosmos 2369 Rocket 2.3 23:03:38 10° S 23:09:16 55° ESE 23:11:19 36° NE
Intelsat 5-3 Rocket 3.7 22:58:56 10° W 23:09:53 70° S 23:12:36 26° ESE
SJ-6B 3.3 23:06:29 10° SSE 23:09:19 38° ESE 23:09:19 38° ESE
CZ-3A R/B 4.3 23:04:35 10° W 23:11:43 36° NNW 23:18:03 22° NNE
Cosmos 1417 Rocket 4.4 23:16:46 19° N 23:21:27 73° E 23:27:50 10° S
Cosmos 1943 Rocket 2.8 23:17:39 10° SSW 23:23:00 52° WNW 23:26:18 23° N
CZ-2C R/B 4.0 23:22:34 10° S 23:23:15 10° S 23:23:56 10° SSE
GPS 2-18 Rocket1 3.1 23:19:43 10° W 23:23:40 79° S 23:23:45 79° SSE
Cosmos 1553 Rocket 4.0 23:19:37 10° N 23:25:53 86° W 23:32:08 10° S
MOS 1-B Rocket 4.5 23:21:22 22° N 23:26:10 84° WNW 23:34:18 10° SSW
NOSS 3-3 (A) 3.7 23:20:31 10° SSW 23:26:20 77° WNW 23:28:11 43° N
NOSS 3-3 (C) 3.7 23:20:37 10° SSW 23:26:27 78° WNW 23:28:16 44° NNE
OBJECT-B 2.9 23:25:27 10° SSE 23:26:37 20° SSE 23:26:37 20° SSE
H-2A R/B 4.3 23:31:22 38° SSE 23:31:22 38° SSE 23:34:18 10° S
Cosmos 1184 Rocket 4.2 23:30:48 10° SSW 23:33:30 36° WSW 23:33:30 36° WSW
Cosmos 923 Rocket 4.3 23:32:35 10° NNW 23:37:47 65° WSW 23:43:00 10° S
SL-08 ROCKET BODY 4.5 23:36:24 10° S 23:42:30 58° E 23:42:34 58° E
Cosmos 1680 Rocket 3.5 23:43:32 47° NNW 23:45:03 77° WSW 23:50:18 10° S
S3M 3.9 23:45:14 41° N 23:47:33 83° W 23:53:52 10° S
Cosmos 2151 3.7 23:44:47 10° S 23:48:01 50° SSW 23:48:01 50° SSW
Lacrosse 5 rocket 3.2 23:46:08 10° WSW 23:49:56 25° WNW 23:50:21 25° NW
SL-08 R/B 4.3 23:45:02 10° S 23:51:11 79° E 23:51:33 76° NE
MOS 1 4.2 23:47:10 10° S 23:52:52 82° WSW 23:53:52 62° NNW
